This demonstration page uses our WeatherBlox Daily Observations layout. Learn more.

Left ArrowRight Arrow

36.17497, -115.13722

Hourly Observations for April 11, 2017

Temp ( °F °C ) Dew Point ( °F °C ) Humidity (%) Winds ( mph kmh ) Pressure ( in mb ) Visibility ( mi km ) Precip ( " mm )
12:53 am 00:53 Clear 57 13.9 15 -9.4 19 19 NNW 6 9 30.01 1016 10 16 0.00 0.00
1:53 am 01:53 Clear 57 13.9 20 -6.7 24 24 Calm 30.01 1016 10 16 0.00 0.00
2:53 am 02:53 Clear 55 12.8 18 -7.8 23 23 N 3 6 30.00 1016 10 16 0.00 0.00
3:53 am 03:53 Clear 55 12.8 17 -8.3 22 22 Calm 29.98 1015 10 16 0.00 0.00
4:53 am 04:53 Clear 53 11.7 22 -5.6 30 30 SW 3 6 29.98 1015 10 16 0.00 0.00
5:53 am 05:53 Clear 53 11.7 20 -6.7 27 27 WNW 3 6 29.98 1015 10 16 0.00 0.00
6:53 am 06:53 Sunny 53 11.7 22 -5.6 30 30 Calm 30.00 1016 10 16 0.00 0.00
7:53 am 07:53 Sunny 58 14.4 12 -11.1 16 16 S 3 6 30.01 1016 10 16 0.00 0.00
8:53 am 08:53 Sunny 62 16.7 11 -11.7 13 13 E 5 7 30.01 1016 10 16 0.00 0.00
9:53 am 09:53 Sunny 66 18.9 10 -12.2 11 11 ESE 6 9 30.01 1016 10 16 0.00 0.00
10:53 am 10:53 Sunny 69 20.6 9 -12.8 9 9 ESE 6 9 29.99 1016 10 16 0.00 0.00
11:53 am 11:53 Sunny 71 21.7 10 -12.2 9 9 ESE 5 7 29.96 1015 10 16 0.00 0.00
12:53 pm 12:53 Sunny 76 24.4 10 -12.2 8 8 SSE 7 11 29.94 1014 10 16 0.00 0.00
1:53 pm 13:53 Sunny 77 25 10 -12.2 8 8 ESE 7 11 29.91 1013 10 16 0.00 0.00
2:53 pm 14:53 Sunny 78 25.6 9 -12.8 7 7 ENE 14 22 29.90 1012 10 16 0.00 0.00
3:53 pm 15:53 Sunny 78 25.6 9 -12.8 7 7 VRB 6 9 29.89 1012 10 16 0.00 0.00
4:53 pm 16:53 Mostly Cloudy 77 25 20 -6.7 12 12 W 15 24 29.89 1012 10 16 0.00 0.00
5:53 pm 17:53 Mostly Sunny 76 24.4 25 -3.9 15 15 WSW 10 17 29.88 1012 10 16 0.00 0.00
6:53 pm 18:53 Sunny 76 24.4 14 -10 9 9 WSW 8 13 29.89 1012 10 16 0.00 0.00
7:53 pm 19:53 Clear 73 22.8 14 -10 10 10 S 7 11 29.90 1013 10 16 0.00 0.00
8:53 pm 20:53 Clear 72 22.2 15 -9.4 11 11 SSW 6 9 29.91 1013 10 16 0.00 0.00
9:53 pm 21:53 Clear 69 20.6 17 -8.3 14 14 S 8 13 29.92 1013 10 16 0.00 0.00
10:53 pm 22:53 Clear 68 20 17 -8.3 14 14 SW 8 13 29.91 1013 10 16 0.00 0.00
11:53 pm 23:53 Clear 63 17.2 20 -6.7 19 19 S 6 9 29.92 1013 10 16 0.00 0.00

Powered by AerisWeather